Weather in Stepnaya Shentala

Russia / Samara Oblast     54°18′42″N   50°19′42″E
temp.,
°C
wind,
m/s
gust,
m/s
humid.,
%
clouds,
%
prec.,
mm/h
press.,
hPa
HPBL,
m
3 march, wed
wed301:00−5w349671 0.1 100138
04:00−5w359778 0.1 1002102
07:00−6w359799 0.3 1001132
10:00−4w489698 0.6 1002372
13:00−2wnw689199 0.2 1003716
16:00−3wnw6989100 0.3 1004857
19:00−5wnw5119598 0.2 1005505
22:00−6wnw4109299 0.3 1007665
4 march, thu
thu401:00−10w469695 0.1 1006118
04:00−12sw479678 0.1 100691
07:00−11sw51095100 0.0 1004225
10:00−7sw71293100 0.1 1003485
13:00−3sw8139298 0.2 1000811
16:00−1wsw10159699 2.0 9971036
19:00+1wsw91689100 0.5 9961112
22:00−1w6148695 0.6 999540
5 march, fri
fri501:00−3wsw5119096 0.0 1000379
04:00−4wsw369698 0.0 1001159
07:00−3ssw1198100 1.0 100021
10:00−2ne1298100 3.4 1000196
13:00−2nne5797100 1.8 1000427
16:00−4n6894100 2.8 1002575
19:00−9nnw479087 0.1 1006121
22:00−15nnw228644 0.1 101120
6 march, sat
sat601:00−17wsw11840 0.0 101320
04:00−16ssw23830 0.0 101420
07:00−15s338173 0.0 101330
10:00−12s368487 0.0 1013163
13:00−9s3689100 0.0 1011313
16:00−7sw3593100 0.1 1009417
19:00−10wnw479495 0.2 1009143
22:00−12wnw489564 0.2 1010155
7 march, sun
sun701:00−16wnw479611 0.0 1010122
04:00−18wnw459849 0.0 101189
07:00−21w3410078 0.0 101343
10:00−18wsw369663 0.0 1014201
13:00−15sw469453 0.0 1012289
16:00−12ssw499044 0.0 1010397
19:00−11s61389100 0.0 1007514
22:00−9ssw81593100 0.8 1004840